CW8078 Weather Reports


time (UTC)temp
C
wind
direction
speed
KPH
gust
KPH
rain 1hr
cm
rain 24hr
cm
rain mn
cm
humidity
%
barometer
mb
20260506160303 12 60 0.0 8.0 0.00 1.57 0.08 67 1016.0
20260506154804 12 269 0.0 0.0 0.00 1.57 0.08 75 1016.0
20260506154304 12 290 0.0 0.0 0.00 1.57 0.08 76 1015.8
20260506153803 12 290 0.0 0.0 0.00 1.57 0.08 76 1015.8
20260506151303 11 290 0.0 0.0 0.00 1.57 0.08 79 1015.8
20260506150803 11 254 0.0 0.0 0.00 1.57 0.08 82 1015.8
20260506144804 10 192 0.0 1.6 0.00 1.57 0.08 86 1015.5
20260506144303 10 211 0.0 1.6 0.00 1.57 0.08 87 1015.5
20260506143302 10 275 0.0 0.0 0.00 1.57 0.08 88 1015.5
20260506141802 10 293 0.0 0.0 0.00 1.57 0.08 93 1015.0
20260506141302 10 293 0.0 0.0 0.00 1.57 0.08 94 1014.9
20260506140802 9 293 0.0 0.0 0.00 1.57 0.08 94 1014.8
20260506134302 8 293 0.0 0.0 0.00 1.57 0.08 94 1014.9
20260506133802 8 293 0.0 0.0 0.00 1.57 0.08 94 1015.0
20260506133302 8 293 0.0 0.0 0.00 1.57 0.08 94 1015.0
20260506131802 8 293 0.0 0.0 0.00 1.57 0.08 94 1014.9
20260506130802 8 293 0.0 0.0 0.00 1.57 0.08 93 1014.7
20260506130303 8 293 0.0 0.0 0.00 1.57 0.08 93 1014.9
20260506124803 7 293 0.0 0.0 0.00 1.57 0.08 93 1014.9
20260506124302 7 293 0.0 0.0 0.00 1.57 0.08 93 1015.1
20260506123803 7 293 0.0 0.0 0.00 1.57 0.08 93 1015.1
20260506123303 7 292 0.0 0.0 0.00 1.57 0.08 93 1014.9
20260506121802 7 285 0.0 0.0 0.00 1.57 0.08 93 1015.1
20260506121302 7 267 0.0 0.0 0.00 1.57 0.08 93 1015.1
20260506120803 7 248 0.0 0.0 0.00 1.57 0.08 94 1015.0
20260506120302 7 235 0.0 0.0 0.00 1.57 0.08 94 1014.6
20260506114302 7 180 0.0 0.0 0.03 1.57 0.08 94 1014.5
20260506113302 7 180 0.0 0.0 0.03 1.57 0.08 94 1013.9
20260506111302 7 180 0.0 0.0 0.03 1.60 0.08 94 1013.8
20260506110802 7 180 0.0 0.0 0.03 1.63 0.08 94 1013.7
20260506104802 7 180 0.0 0.0 0.00 1.68 0.05 94 1013.5
20260506104302 7 180 0.0 0.0 0.00 1.73 0.05 94 1013.1
20260506103802 7 180 0.0 0.0 0.00 1.78 0.05 94 1013.3
20260506103302 7 180 0.0 0.0 0.00 1.80 0.05 94 1013.0
20260506100802 7 180 0.0 0.0 0.00 2.01 0.05 94 1012.5
20260506100302 7 180 0.0 0.0 0.00 2.01 0.05 94 1012.3
20260506094303 7 180 0.0 0.0 0.00 2.08 0.05 94 1011.7
20260506093802 7 180 0.0 0.0 0.03 2.13 0.05 94 1011.6
20260506091803 7 180 0.0 0.0 0.03 2.18 0.05 94 1011.6
20260506091303 7 180 0.0 0.0 0.03 2.18 0.05 94 1011.6
20260506090802 7 180 0.0 0.0 0.03 2.18 0.05 94 1011.4
20260506090302 7 180 0.0 0.0 0.03 2.18 0.05 94 1011.6
20260506084802 7 180 0.0 0.0 0.03 2.18 0.05 94 1012.1
20260506084302 7 180 0.0 1.6 0.03 2.18 0.05 94 1012.0
20260506083302 7 180 0.0 0.0 0.00 2.18 0.03 94 1012.4
20260506081802 7 180 0.0 0.0 0.03 2.18 0.03 94 1012.4
20260506081302 7 180 0.0 0.0 0.03 2.18 0.03 94 1012.6
20260506080802 7 140 0.0 0.0 0.03 2.18 0.03 94 1012.7
20260506080302 7 111 0.0 0.0 0.03 2.21 0.03 94 1012.7
20260506073302 7 111 0.0 0.0 0.03 2.57 0.03 94 1012.4
20260506071802 7 111 0.0 0.0 0.00 2.57 0.00 94 1012.2
20260506071302 7 111 0.0 0.0 0.00 2.57 0.00 94 1012.4
20260506070302 7 111 0.0 0.0 0.00 2.57 0.00 94 1012.2
20260506061802 7 111 0.0 0.0 0.00 2.57 0.00 94 1012.2
20260506060802 7 10 0.0 0.0 0.00 2.57 0.00 94 1012.0
20260506060303 7 10 0.0 0.0 0.00 2.57 0.00 94 1012.1
20260506051302 7 10 0.0 0.0 0.00 2.57 0.00 94 1011.5
20260506050802 7 10 0.0 0.0 0.00 2.57 0.00 94 1011.4
20260506044802 7 10 0.0 0.0 0.00 2.57 2.57 94 1011.5
20260506044303 7 10 0.0 0.0 0.00 2.57 2.57 94 1011.7
20260506043803 7 10 0.0 0.0 0.00 2.57 2.57 94 1011.7
20260506043303 7 10 0.0 0.0 0.00 2.57 2.57 94 1011.6
20260506041803 7 10 0.0 0.0 0.00 2.57 2.57 94 1011.2
20260506040803 7 10 0.0 0.0 0.03 2.57 2.57 94 1011.4
20260506040302 7 10 0.0 0.0 0.03 2.57 2.57 94 1011.2
20260506034803 7 10 0.0 0.0 0.05 2.57 2.57 94 1011.7
20260506034303 7 10 0.0 0.0 0.05 2.57 2.57 94 1011.7
20260506033302 7 10 0.0 0.0 0.05 2.57 2.57 94 1011.2
20260506031803 7 10 0.0 0.0 0.08 2.57 2.57 94 1011.4
20260506031303 7 10 0.0 0.0 0.08 2.57 2.57 94 1011.4
20260506030803 7 10 0.0 0.0 0.05 2.54 2.54 94 1011.2
20260506024802 7 10 0.0 0.0 0.05 2.51 2.51 94 1011.3
20260506024303 7 10 0.0 0.0 0.05 2.51 2.51 94 1011.4
20260506023302 7 10 0.0 0.0 0.10 2.51 2.51 94 1011.0
20260506021303 7 10 0.0 0.0 0.18 2.49 2.49 93 1010.4
20260506020803 7 10 0.0 0.0 0.18 2.49 2.49 93 1010.2
20260506020302 7 10 0.0 0.0 0.20 2.49 2.49 93 1010.2
20260506014802 7 10 0.0 0.0 0.20 2.46 2.46 93 1010.1
20260506014302 7 10 0.0 0.0 0.20 2.46 2.46 93 1010.1
20260506013302 7 10 0.0 0.0 0.20 2.41 2.41 93 1010.1
20260506011803 7 10 0.0 0.0 0.15 2.34 2.34 93 1010.3
20260506011303 7 10 0.0 0.0 0.15 2.31 2.31 93 1010.1
20260506010803 7 10 0.0 0.0 0.15 2.31 2.31 93 1009.9
20260506010303 7 10 0.0 0.0 0.13 2.29 2.29 93 1010.0
20260506004803 7 10 0.0 0.0 0.18 2.26 2.26 93 1009.9
20260506004303 7 10 0.0 0.0 0.20 2.26 2.26 93 1009.7
20260506003803 7 10 0.0 0.0 0.20 2.24 2.24 93 1009.7
20260506003302 7 10 0.0 0.0 0.20 2.21 2.21 93 1009.5
20260506001802 7 10 0.0 0.0 0.23 2.18 2.18 93 1009.5
20260506001303 7 10 0.0 0.0 0.23 2.16 2.16 93 1009.2
20260506000302 7 10 0.0 0.0 0.25 2.16 2.16 93 1009.2
20260505234803 7 10 0.0 0.0 0.20 2.08 2.08 92 1009.7
20260505234303 7 10 0.0 0.0 0.18 2.06 2.06 93 1009.7
20260505233803 7 10 0.0 0.0 0.18 2.03 2.03 93 1009.7
20260505233303 7 10 0.0 0.0 0.15 2.01 2.01 93 1009.3
20260505231303 7 9 0.0 0.0 0.10 1.93 1.93 92 1009.4
20260505230303 7 31 0.0 0.0 0.10 1.91 1.91 92 1009.7
20260505224802 7 31 0.0 0.0 0.15 1.88 1.88 92 1009.7
20260505224303 7 290 0.0 0.0 0.18 1.88 1.88 92 1009.6
20260505223802 7 21 0.0 0.0 0.18 1.85 1.85 92 1009.6
20260505223303 7 21 0.0 0.0 0.20 1.85 1.85 92 1009.9
20260505221803 7 21 0.0 0.0 0.30 1.85 1.85 92 1009.2
20260505221303 7 48 0.0 3.2 0.28 1.83 1.83 91 1009.1
20260505220803 7 5 0.0 0.0 0.28 1.83 1.83 91 1009.1
20260505220303 7 13 0.0 4.8 0.25 1.80 1.80 90 1009.5
20260505214803 7 21 0.0 3.2 0.23 1.73 1.73 90 1009.0
20260505213803 7 63 0.0 0.0 0.20 1.68 1.68 90 1008.7
20260505213303 7 29 0.0 0.0 0.18 1.65 1.65 91 1008.6
20260505211304 8 352 0.0 0.0 0.13 1.55 1.55 91 1008.7
20260505210803 8 350 0.0 0.0 0.13 1.55 1.55 91 1008.8
20260505210303 8 4 0.0 0.0 0.13 1.55 1.55 91 1008.6
20260505204802 8 2 0.0 8.0 0.08 1.50 1.50 90 1008.9
20260505204303 8 357 0.0 3.2 0.08 1.50 1.50 90 1008.7
20260505203802 8 36 0.0 0.0 0.05 1.47 1.47 89 1009.0
20260505203302 8 330 0.0 0.0 0.08 1.47 1.47 90 1009.3
20260505201803 8 22 0.0 12.9 0.08 1.45 1.45 89 1008.8
20260505201303 8 12 0.0 0.0 0.05 1.42 1.42 90 1009.2
20260505200804 8 300 0.0 0.0 0.08 1.42 1.42 91 1009.3
20260505194803 8 352 0.0 0.0 0.10 1.42 1.42 89 1009.1
20260505194303 8 355 0.0 0.0 0.10 1.42 1.42 90 1009.2
20260505193303 8 16 0.0 9.7 0.10 1.40 1.40 90 1008.9
20260505191803 8 6 0.0 8.0 0.13 1.37 1.37 88 1009.9
20260505190802 8 23 0.0 1.6 0.10 1.35 1.35 88 1009.2
20260505190302 8 3 0.0 1.6 0.10 1.35 1.35 89 1009.1
20260505184803 8 310 0.0 0.0 0.08 1.32 1.32 90 1009.6
20260505183802 8 0 0.0 3.2 0.08 1.32 1.32 89 1009.5
20260505183302 8 57 0.0 9.7 0.08 1.30 1.30 90 1009.2
20260505181803 8 17 0.0 0.0 0.03 1.24 1.24 88 1009.4
20260505181302 8 355 0.0 1.6 0.03 1.24 1.24 88 1009.7
20260505180803 8 8 0.0 0.0 0.05 1.24 1.24 86 1009.4
20260505180303 8 354 0.0 1.6 0.05 1.24 1.24 86 1009.2
20260505174803 9 18 0.0 4.8 0.10 1.24 1.24 88 1008.9
20260505173803 9 328 0.0 3.2 0.15 1.24 1.24 88 1009.2
20260505171803 10 354 0.0 1.6 0.15 1.22 1.22 89 1009.1
20260505170803 9 2 0.0 4.8 0.13 1.19 1.19 87 1008.5
20260505170303 9 320 0.0 3.2 0.13 1.19 1.19 87 1008.3
20260505164802 10 15 0.0 0.0 0.08 1.14 1.14 87 1009.8
20260505164302 10 342 0.0 0.0 0.05 1.12 1.12 87 1010.0
20260505163803 10 275 0.0 1.6 0.03 1.09 1.09 85 1010.2
20260505163303 10 323 0.0 1.6 0.00 1.07 1.07 85 1009.9
20260505161303 10 9 0.0 0.0 0.00 1.07 1.07 83 1009.8
20260505160803 10 9 0.0 0.0 0.00 1.07 1.07 84 1009.5